FLOCK 1C-6 (40036 NORAD) Tracking and Keplerian Element Data

This shows tracking and keplerian element data for the satellite.

Feedback or suggestion? Click here.




ElementValue
Catalog40036
NameFLOCK 1C-6
Epoch Orbit31762
Epoch Day115.06546491
Epoch Year2020
RAAN45.5176
Inclination97.9469
Eccentricity0.0013362
Argument of Perigee102.3197
Mean Anonmoly257.9517
Mean Motion14.9030632
Decay Rate5.56E-06
L11 40036U 14033AC 20115.06546491 .00000556 00000-0 63078-4 0 9992
L22 40036 97.9469 45.5176 0013362 102.3197 257.9517 14.90306320317628



Live tracking and technical data element details for FLOCK 1C-6 (NORAD 40036). FLOCK 1C-6 can be tracked NOW for your location showing map with azimuth and elevation plus other details from your city location.







IsCatalogInMostPopularTable: catalog: 40036, numindb: 509
Update: records affected: 1



GetName: 40036 FLOCK 1C-6

Hit Count: updated at: Mon, 18 May 2026 09:27:46 GMT